• En España
  • Lista de países
  • Para 7 días
  • Temperatura del agua
  • Mapa Satelital
  • El tiempo en el mapa
  • Informadores
  • user-avatar
    Iniciar sesión

    Tiempo cada hora Innsbruck

    Hoy, 23 Junio, Sábado

    Tiempo Temperatura Precipitaciones Viento Presión Humedad
    00:00 +2°C° 0 mm 1 mps 599 mmHg 92%
    01:00 +1°C° 0 mm 1 mps 599 mmHg 93%
    02:00 +1°C° 0 mm 1 mps 599 mmHg 93%
    03:00 0°C° 0 mm 1 mps 598 mmHg 93%
    04:00 0°C° 0 mm 1 mps 598 mmHg 94%
    05:00 +1°C° 0 mm 1 mps 599 mmHg 86%
    06:00 +3°C° 0 mm 1 mps 599 mmHg 78%
    07:00 +4°C° 0 mm 1 mps 600 mmHg 71%
    08:00 +6°C° 0 mm 1 mps 601 mmHg 62%
    09:00 +7°C° 0 mm 2 mps 601 mmHg 53%
    10:00 +9°C° 0 mm 2 mps 602 mmHg 44%
    11:00 +10°C° 0 mm 2 mps 602 mmHg 42%
    12:00 +11°C° 0 mm 3 mps 602 mmHg 40%
    13:00 +12°C° 0 mm 3 mps 602 mmHg 38%
    14:00 +11°C° 0 mm 3 mps 602 mmHg 41%
    15:00 +11°C° 0 mm 3 mps 602 mmHg 44%
    16:00 +11°C° 0 mm 3 mps 601 mmHg 46%
    17:00 +9°C° 0 mm 3 mps 601 mmHg 55%
    18:00 +8°C° 0 mm 3 mps 600 mmHg 64%
    19:00 +7°C° 0 mm 2 mps 600 mmHg 73%
    20:00 +5°C° 0 mm 2 mps 600 mmHg 80%
    21:00 +4°C° 0 mm 2 mps 599 mmHg 87%
    22:00 +4°C° 0 mm 1 mps 599 mmHg 93%
    23:00 +3°C° 0 mm 1 mps 599 mmHg 94%

    Mañana, 24 Junio, Domingo

    Tiempo Temperatura Precipitaciones Viento Presión Humedad
    00:00 +3°C° 0 mm 1 mps 599 mmHg 94%
    01:00 +3°C° 0 mm 1 mps 599 mmHg 95%
    02:00 +2°C° 0 mm 1 mps 598 mmHg 95%
    03:00 +2°C° 0 mm 1 mps 598 mmHg 95%
    04:00 +2°C° 0 mm 1 mps 598 mmHg 95%
    05:00 +3°C° 0 mm 1 mps 598 mmHg 89%
    06:00 +4°C° 0 mm 1 mps 598 mmHg 84%
    07:00 +6°C° 0 mm 1 mps 599 mmHg 78%
    08:00 +7°C° 0,1 mm 1 mps 599 mmHg 74%
    09:00 +8°C° 0,1 mm 1 mps 600 mmHg 70%
    10:00 +8°C° 0,1 mm 2 mps 600 mmHg 65%
    11:00 +9°C° 0,3 mm 2 mps 600 mmHg 64%
    12:00 +9°C° 0,3 mm 2 mps 600 mmHg 62%
    13:00 +10°C° 0,3 mm 2 mps 600 mmHg 60%
    14:00 +9°C° 0,4 mm 2 mps 600 mmHg 63%
    15:00 +9°C° 0,4 mm 2 mps 600 mmHg 66%
    16:00 +8°C° 0,4 mm 2 mps 599 mmHg 69%
    17:00 +8°C° 0,3 mm 2 mps 599 mmHg 74%
    18:00 +7°C° 0,3 mm 2 mps 599 mmHg 79%
    19:00 +7°C° 0,3 mm 2 mps 599 mmHg 84%
    20:00 +5°C° 0,1 mm 2 mps 599 mmHg 88%
    21:00 +4°C° 0,1 mm 2 mps 598 mmHg 92%
    22:00 +4°C° 0,1 mm 1 mps 598 mmHg 96%
    23:00 +3°C° 0 mm 1 mps 598 mmHg 96%

    Pasado mañana, 25 Junio, Lunes

    Tiempo Temperatura Precipitaciones Viento Presión Humedad
    00:00 +3°C° 0 mm 1 mps 598 mmHg 96%
    01:00 +3°C° 0 mm 1 mps 598 mmHg 96%
    02:00 +2°C° 0 mm 1 mps 597 mmHg 96%
    03:00 +2°C° 0 mm 1 mps 597 mmHg 95%
    04:00 +1°C° 0 mm 1 mps 597 mmHg 95%
    05:00 +3°C° 0 mm 1 mps 598 mmHg 89%
    06:00 +5°C° 0 mm 1 mps 599 mmHg 83%
    07:00 +6°C° 0 mm 1 mps 599 mmHg 77%
    08:00 +7°C° 0 mm 2 mps 600 mmHg 72%
    09:00 +8°C° 0 mm 2 mps 601 mmHg 67%
    10:00 +10°C° 0 mm 2 mps 601 mmHg 62%
    11:00 +12°C° 0,2 mm 2 mps 602 mmHg 61%
    12:00 +12°C° 0,2 mm 2 mps 602 mmHg 60%
    13:00 +12°C° 0,2 mm 3 mps 602 mmHg 59%
    14:00 +12°C° 0,3 mm 3 mps 602 mmHg 61%
    15:00 +11°C° 0,3 mm 3 mps 602 mmHg 64%
    16:00 +11°C° 0,3 mm 3 mps 601 mmHg 66%
    17:00 +10°C° 0,2 mm 3 mps 601 mmHg 72%
    18:00 +9°C° 0,2 mm 2 mps 601 mmHg 78%
    19:00 +8°C° 0,2 mm 2 mps 601 mmHg 84%
    20:00 +7°C° 0,1 mm 2 mps 601 mmHg 88%
    21:00 +6°C° 0,1 mm 2 mps 601 mmHg 92%
    22:00 +5°C° 0,1 mm 1 mps 600 mmHg 96%
    23:00 +5°C° 0 mm 1 mps 600 mmHg 96%

    26 Junio, Martes

    Tiempo Temperatura Precipitaciones Viento Presión Humedad
    00:00 +4°C° 0 mm 1 mps 600 mmHg 96%
    01:00 +3°C° 0 mm 1 mps 599 mmHg 96%
    02:00 +3°C° 0 mm 1 mps 599 mmHg 95%
    03:00 +3°C° 0 mm 1 mps 599 mmHg 95%
    04:00 +2°C° 0 mm 1 mps 599 mmHg 95%
    05:00 +4°C° 0 mm 1 mps 599 mmHg 88%
    06:00 +6°C° 0 mm 1 mps 600 mmHg 82%
    07:00 +8°C° 0 mm 1 mps 601 mmHg 75%
    08:00 +10°C° 0 mm 1 mps 602 mmHg 67%
    09:00 +12°C° 0 mm 2 mps 603 mmHg 58%
    10:00 +13°C° 0 mm 2 mps 603 mmHg 50%
    11:00 +14°C° 0 mm 2 mps 604 mmHg 48%
    12:00 +14°C° 0 mm 3 mps 604 mmHg 46%
    13:00 +16°C° 0 mm 3 mps 604 mmHg 45%
    14:00 +16°C° 0 mm 3 mps 604 mmHg 46%
    15:00 +16°C° 0 mm 3 mps 604 mmHg 48%
    16:00 +16°C° 0 mm 3 mps 603 mmHg 50%
    17:00 +13°C° 0 mm 3 mps 603 mmHg 57%
    18:00 +13°C° 0 mm 2 mps 603 mmHg 65%
    19:00 +12°C° 0 mm 2 mps 602 mmHg 72%
    20:00 +9°C° 0 mm 2 mps 602 mmHg 80%
    21:00 +8°C° 0 mm 1 mps 601 mmHg 88%
    22:00 +6°C° 0 mm 1 mps 600 mmHg 96%
    23:00 +5°C° 0 mm 1 mps 600 mmHg 96%

    27 Junio, Miércoles

    Tiempo Temperatura Precipitaciones Viento Presión Humedad
    00:00 +5°C° 0 mm 1 mps 600 mmHg 96%
    01:00 +5°C° 0 mm 1 mps 600 mmHg 96%
    02:00 +5°C° 0 mm 1 mps 600 mmHg 95%
    03:00 +4°C° 0 mm 1 mps 599 mmHg 95%
    04:00 +4°C° 0 mm 1 mps 599 mmHg 95%
    05:00 +6°C° 0 mm 1 mps 600 mmHg 88%
    06:00 +9°C° 0 mm 1 mps 601 mmHg 81%
    07:00 +11°C° 0 mm 1 mps 602 mmHg 73%
    08:00 +13°C° 0 mm 1 mps 603 mmHg 63%
    09:00 +14°C° 0 mm 1 mps 604 mmHg 53%
    10:00 +16°C° 0 mm 2 mps 604 mmHg 42%
    11:00 +17°C° 0 mm 2 mps 604 mmHg 41%
    12:00 +18°C° 0 mm 2 mps 605 mmHg 40%
    13:00 +18°C° 0 mm 3 mps 605 mmHg 38%
    14:00 +18°C° 0 mm 3 mps 604 mmHg 41%
    15:00 +18°C° 0 mm 3 mps 604 mmHg 43%
    16:00 +18°C° 0 mm 3 mps 604 mmHg 46%
    17:00 +17°C° 0 mm 2 mps 604 mmHg 54%
    18:00 +15°C° 0 mm 2 mps 603 mmHg 62%
    19:00 +14°C° 0 mm 2 mps 603 mmHg 70%
    20:00 +12°C° 0 mm 1 mps 602 mmHg 78%
    21:00 +10°C° 0 mm 1 mps 602 mmHg 86%
    22:00 +8°C° 0 mm 1 mps 601 mmHg 94%
    23:00 +8°C° 0 mm 1 mps 601 mmHg 94%

    28 Junio, Jueves

    Tiempo Temperatura Precipitaciones Viento Presión Humedad
    00:00 +8°C° 0 mm 1 mps 601 mmHg 94%
    01:00 +8°C° 0 mm 1 mps 601 mmHg 94%
    02:00 +7°C° 0 mm 1 mps 601 mmHg 94%
    03:00 +7°C° 0 mm 1 mps 600 mmHg 94%
    04:00 +7°C° 0 mm 1 mps 600 mmHg 94%
    05:00 +9°C° 0 mm 1 mps 601 mmHg 88%
    06:00 +10°C° 0 mm 1 mps 602 mmHg 83%
    07:00 +12°C° 0 mm 1 mps 602 mmHg 77%
    08:00 +14°C° 0 mm 1 mps 603 mmHg 70%
    09:00 +15°C° 0 mm 1 mps 604 mmHg 62%
    10:00 +18°C° 0 mm 1 mps 604 mmHg 55%
    11:00 +18°C° 0 mm 1 mps 604 mmHg 53%
    12:00 +19°C° 0 mm 1 mps 604 mmHg 52%
    13:00 +18°C° 0 mm 2 mps 604 mmHg 50%
    14:00 +18°C° 0,1 mm 2 mps 604 mmHg 52%
    15:00 +18°C° 0,1 mm 2 mps 604 mmHg 54%
    16:00 +17°C° 0,1 mm 2 mps 603 mmHg 56%
    17:00 +18°C° 0,4 mm 1 mps 603 mmHg 62%
    18:00 +16°C° 0,4 mm 1 mps 603 mmHg 69%
    19:00 +15°C° 0,4 mm 1 mps 603 mmHg 75%
    20:00 +13°C° 0,3 mm 1 mps 602 mmHg 81%
    21:00 +11°C° 0,3 mm 1 mps 602 mmHg 87%
    22:00 +9°C° 0,3 mm 1 mps 601 mmHg 92%
    23:00 +9°C° 0,3 mm 1 mps 601 mmHg 93%
    Mostrar más